Tracking 31027 objects as of 19-Jul-2025
HD Live streaming from Space Station
objects crossing your sky now

CZ-2 DEB

Track CZ-2 DEB now!
10-day predictions


NORAD ID: 38659
Int'l Code: 2009-072G
Perigee: 1,144.4 km
Apogee: 1,350.2 km
Inclination: 100.7 °
Period: 110.3 minutes
Semi major axis: 7618 km
RCS: 0.0015 m2 (small)
Launch date: December 15, 2009
Source: People's Republic of China (PRC)
Launch site: Taiyaun Space Center, China (TSC)

Note: This is SATELLITE DEBRIS
Your satellite tracking list
HAWK-4A
Track 1 satellite(s)




NASA's NSSDC Master Catalog

Two Line Element Set (TLE):
1 38659U 09072G   25195.72313838  .00000141  00000-0  54401-3 0  9999
2 38659 100.6650 150.8882 0135063 134.3428 345.6404 13.05624881738783
Source of the keplerian elements: AFSPC